RH
74 76 82 81 78 78 80 74 74 75 72 72 73 75 74 66 59 65 56 55 60 62 70 80 95 94 91 80 63 58 68 84 86 75 60 50 44 54 63 72 80 86 79
80 78 80 83 82 81 80 81 78 76 74 74 76 72 62 64 72 72 58 61 64 64 66 61 71 73 88 82 68 58 49 58 80 77 71 68 61 50 52 68 78 77 73
80 82 82 83 83 82 82 81 80 77 77 77 75 73 69 68 71 74 62 66 76 87 91 87 90 80 76 83 81 68 52 53 60 78 81 84 85 78 69 37 40 68 73
71 83 84 86 84 83 83 84 83 84 84 83 84 82 80 78 74 74 72 57 74 79 84 84 84 76 69 69 73 66 56 49 56 64 80 86 91 93 82 43 41 46 59
83 87 90 89 88 87 86 86 87 87 87 87 86 86 86 86 84 82 77 74 59 79 87 89 84 78 74 69 58 67 63 54 49 68 78 80 78 84 85 67 44 42 49
84 88 90 89 89 88 87 88 84 85 86 87 89 88 87 87 88 88 88 82 81 72 68 82 88 91 90 86 70 54 64 69 63 51 62 64 79 86 82 74 60 52 52
41 41 44 49 52 54 61 68 79 85 87 87 86 87 88 87 88 89 88 86 83 80 81 77 75 78 87 88 88 71 54 72 73 58 56 63 80 85 82 75 70 47 43
38 37 38 38 38 38 36 36 34 36 40 48 63 75 83 87 86 86 85 86 87 85 82 78 79 80 80 84 89 86 74 54 63 58 56 63 80 85 86 75 74 69 48
36 35 35 33 32 32 32 32 30 30 32 32 34 41 40 47 49 56 78 84 86 86 86 85 84 82 78 78 82 86 85 80 58 52 53 64 73 74 92 82 73 73 65
32 30 28 26 25 28 32 34 33 35 37 38 37 36 36 38 38 42 48 63 86 95 93 92 90 86 85 84 79 79 82 87 88 67 46 46 59 70 71 90 88 75 70
40 34 30 28 28 29 31 31 33 38 40 40 38 39 39 39 38 36 41 43 48 59 65 73 83 89 87 86 86 83 81 82 82 87 80 55 39 50 67 70 88 76 72
45 40 36 33 32 34 33 35 36 38 40 40 40 41 41 41 42 42 40 38 41 42 65 75 77 79 82 89 88 88 88 84 82 79 78 77 75 52 44 60 85 76 69
46 43 41 38 37 36 38 41 41 43 44 47 48 48 50 50 47 46 44 42 42 43 43 49 61 68 76 82 82 85 88 90 90 89 80 74 73 74 61 70 83 74 68
46 46 45 42 41 47 49 48 49 51 54 55 57 59 60 60 60 59 57 55 51 48 47 46 46 48 49 58 76 82 83 88 86 88 85 81 77 76 66 57 66 74 74
44 44 41 40 43 49 51 52 56 61 66 66 67 68 68 74 73 72 71 70 68 61 58 54 51 48 48 49 49 67 82 82 85 89 90 87 86 86 79 64 61 67 69
44 42 41 43 49 53 55 57 64 72 72 71 74 74 75 74 76 75 74 74 74 72 69 65 63 57 54 54 52 49 56 82 80 75 73 73 85 86 84 79 82 80 86
44 42 44 47 56 57 60 60 69 76 76 76 79 78 77 76 78 77 79 78 78 77 74 71 68 68 64 57 57 54 52 50 51 65 72 73 71 69 70 82 89 87 84
42 44 50 53 58 58 64 64 70 77 80 81 80 80 79 80 83 84 84 86 83 83 88 84 82 76 70 67 64 60 57 55 53 52 53 56 63 66 68 68 59 62 74
42 44 50 57 58 60 68 69 69 71 76 81 79 78 83 85 87 87 85 86 84 83 85 87 83 90 91 86 75 68 62 59 57 54 52 50 51 55 59 58 59 61 66
42 44 49 55 55 60 67 66 66 68 69 77 74 74 83 89 93 92 88 90 89 88 91 90 86 87 100 94 74 80 69 63 61 60 60 59 62 63 61 68 72 79 83
46 45 48 50 54 57 60 59 65 69 75 77 74 75 81 86 90 90 90 93 95 99 97 97 96 95 96 92 86 81 56 65 69 66 72 71 66 64 63 63 68 72 71
46 46 50 50 50 52 58 62 72 72 76 78 76 79 83 84 78 88 87 86 90 96 94 92 91 91 88 88 88 89 95 76 69 71 71 68 67 62 60 74 70 68 69
48 47 48 47 46 49 56 57 66 68 72 73 75 76 82 83 78 80 78 83 86 92 92 93 89 88 94 85 81 92 92 93 76 66 65 62 67 62 77 83 91 86 91
48 48 49 47 44 47 53 56 64 71 76 75 76 74 76 79 72 70 68 77 82 86 85 86 86 87 87 88 80 79 79 83 92 90 68 63 65 75 84 99 100 98 98
49 48 49 47 43 50 56 58 62 69 72 71 70 63 62 66 67 65 61 73 75 74 76 81 86 85 83 97 98 97 89 80 90 89 85 78 81 79 93 100 95 86 81
51 52 54 52 46 50 55 56 63 66 68 66 59 53 50 56 60 59 53 61 70 69 71 76 87 87 87 92 90 97 100 97 94 93 89 83 89 79 96 100 92 86 79
Wind_Speed
4 7 6 6 6 6 5 5 5 4 4 4 3 3 3 3 4 4 4 4 4 3 3 3 5 5 4 3 4 4 3 5 4 4 5 6 6 5 5 5 6 5 5
9 7 8 7 6 6 5 4 4 4 3 4 3 4 4 4 5 5 4 4 4 4 3 2 2 2 2 2 3 3 2 2 2 3 4 5 5 4 3 4 3 4 4
12 9 10 9 7 6 5 4 4 3 3 3 3 3 4 4 4 4 4 2 2 2 2 2 1 2 1 1 2 3 2 0 3 3 3 2 1 1 2 1 1 2 2
11 11 10 8 7 6 4 3 2 1 2 2 3 3 3 4 4 4 3 2 1 1 1 1 3 2 3 3 4 4 4 2 3 5 5 3 4 4 3 1 1 2 3
12 10 10 8 7 6 5 3 2 1 2 3 4 4 5 5 5 5 5 4 4 5 5 5 5 5 5 5 5 5 5 4 4 5 6 6 9 9 8 3 2 2 3
14 11 9 8 6 5 4 2 1 1 1 3 5 5 6 7 8 8 7 7 7 7 8 8 8 9 9 8 7 6 7 7 7 7 8 6 7 9 10 6 4 4 5
16 13 12 10 8 8 6 5 4 3 4 4 5 7 7 8 9 10 11 11 11 11 10 11 11 11 12 11 10 9 8 8 9 9 10 8 5 11 11 9 7 7 7
14 11 10 9 7 6 5 5 4 4 6 6 6 7 8 9 10 12 13 13 15 15 14 14 14 14 13 13 14 12 11 11 12 12 12 12 10 11 14 12 10 10 10
10 8 7 5 5 4 3 4 5 4 4 6 7 6 7 8 9 11 11 13 15 16 17 17 17 16 16 16 16 16 14 13 15 15 14 16 15 12 13 16 15 13 12
8 7 5 3 3 1 2 3 4 3 3 5 5 6 7 7 8 9 9 9 11 14 16 17 19 19 18 18 18 19 18 17 18 18 18 18 19 18 16 18 19 16 14
8 6 5 4 3 3 3 5 4 4 5 6 7 8 9 10 12 12 12 12 11 15 17 18 20 20 20 20 20 21 20 22 22 22 22 20 20 22 22 18 23 20 17
6 5 4 4 5 6 6 6 6 6 7 8 9 11 12 13 14 15 15 16 14 12 13 14 15 17 19 22 22 24 24 25 24 26 26 24 22 21 23 22 24 24 22
5 3 4 5 6 7 8 8 9 8 8 9 10 11 12 13 14 15 16 17 17 15 14 12 14 14 15 16 20 22 25 27 27 28 28 25 22 22 22 23 24 26 25
5 3 5 6 7 8 9 10 10 10 11 11 11 12 13 14 16 16 17 17 16 17 18 17 15 14 14 14 16 20 21 22 23 24 25 25 25 26 22 24 23 27 27
5 2 4 6 7 8 9 11 10 11 12 12 12 11 11 14 15 15 16 17 16 16 15 17 18 18 16 15 14 15 18 18 20 22 26 25 24 24 25 26 26 28 28
6 2 2 4 5 7 9 10 9 8 8 8 9 10 9 12 14 14 15 16 16 16 15 16 17 17 17 16 16 14 13 15 16 17 18 18 20 22 23 27 26 26 29
7 3 1 3 3 6 8 8 6 8 8 7 7 7 10 13 13 14 14 15 16 16 16 15 15 14 14 16 15 15 13 12 13 15 16 17 18 19 20 20 24 26 29
8 5 2 1 2 4 5 6 5 5 5 6 7 9 11 11 13 14 15 16 17 16 16 16 16 17 16 15 14 13 13 13 13 13 13 14 16 17 18 19 20 20 24
9 5 2 0 1 3 3 5 5 6 5 6 9 11 10 10 11 13 15 16 17 16 16 17 17 18 20 17 17 15 14 15 16 17 18 19 18 18 18 19 21 22 22
9 6 4 2 2 2 3 4 4 5 7 6 10 11 11 12 14 14 14 15 16 16 16 18 18 17 13 22 20 13 16 16 16 16 14 13 8 9 12 12 13 12 14
11 9 7 4 3 2 3 4 3 6 7 7 11 10 11 11 11 12 14 15 15 15 14 15 15 17 12 22 13 20 17 9 8 11 10 11 13 15 15 15 16 17 12
13 10 7 5 4 4 4 4 3 6 4 6 8 7 8 8 12 9 11 11 12 12 13 14 15 14 9 15 9 9 3 5 10 12 11 16 18 21 19 18 17 17 16
14 13 9 7 6 5 4 4 4 4 4 4 5 5 4 7 11 9 11 10 10 10 10 12 13 12 10 10 12 5 3 3 9 10 14 19 18 21 19 16 15 16 16
16 12 10 8 7 6 6 6 5 5 4 4 4 4 3 5 7 7 8 7 5 7 8 10 10 10 10 9 8 12 7 6 2 4 7 15 21 17 19 13 16 19 20
15 12 11 10 9 8 8 8 7 8 7 7 6 5 5 5 6 7 7 7 7 7 7 8 8 9 8 7 7 5 6 8 2 2 4 8 15 17 15 14 16 20 22
13 12 12 11 11 11 11 10 11 10 9 9 8 7 6 6 7 7 7 7 7 8 7 6 5 5 6 7 8 7 6 3 4 3 2 7 9 8 8 10 16 21 25
Wind_Direction
124 109 119 125 118 119 109 90 100 103 88 76 71 62 44 32 34 34 46 63 76 89 90 58 50 69 91 64 59 64 79 96 110 91 79 86 96 97 76 96 97 82 97
129 130 122 133 119 113 106 94 84 79 66 53 44 35 32 33 31 33 39 59 75 85 79 56 45 62 68 42 36 41 61 151 158 105 94 103 92 78 84 96 121 115 97
111 125 130 130 123 118 115 102 87 67 51 36 22 19 13 12 11 18 27 48 82 95 65 322 310 343 358 320 322 337 351 227 201 194 177 157 102 70 6 25 161 171 152
122 116 125 130 127 122 114 101 91 66 16 356 354 346 346 346 347 347 352 337 253 242 309 194 262 300 322 306 297 301 307 288 241 229 223 241 277 269 268 308 240 189 188
116 117 115 117 117 115 114 107 86 348 318 310 309 310 314 316 314 316 317 312 285 267 270 280 271 277 286 300 294 286 289 287 259 246 243 256 283 238 231 261 252 225 204
106 104 105 105 104 98 91 78 45 323 300 298 297 300 300 300 299 295 293 291 286 281 275 272 271 272 277 279 288 280 271 279 274 257 254 262 270 220 232 247 270 256 234
108 103 101 97 94 84 73 52 26 2 343 326 311 304 300 299 297 293 291 286 283 279 278 277 275 274 274 276 275 280 272 263 268 261 255 251 266 232 234 249 265 271 260
116 114 111 111 103 93 75 52 26 8 360 347 332 321 318 313 309 307 302 295 290 284 279 277 276 276 275 272 271 274 275 264 262 261 249 245 251 238 241 254 268 278 268
124 125 107 95 80 68 48 37 15 347 353 352 346 339 332 332 329 325 315 308 295 289 286 281 279 276 275 272 269 270 272 272 267 264 257 249 249 256 252 251 263 269 268
118 106 95 87 77 61 357 354 339 339 352 347 339 328 322 311 311 316 322 318 301 301 294 292 286 280 278 278 274 273 271 271 267 268 264 256 254 255 257 249 251 257 260
105 88 73 58 47 34 355 351 341 335 330 321 315 320 319 311 304 297 299 305 301 292 288 296 294 287 281 278 274 273 272 269 268 267 268 266 260 256 254 255 243 252 256
113 83 56 40 30 22 15 8 357 344 332 325 318 312 307 304 304 302 296 290 295 303 290 291 294 297 294 282 278 277 271 270 270 269 269 269 267 263 256 250 248 256 260
133 98 49 30 23 19 20 16 8 2 352 345 339 335 329 322 316 313 309 300 294 295 300 306 299 299 300 297 289 287 282 274 271 272 270 268 264 268 259 249 249 257 263
145 90 43 25 20 20 16 14 12 10 8 5 8 3 356 351 348 343 339 331 318 303 297 297 301 306 307 310 298 293 291 287 279 280 276 274 273 269 266 251 256 259 260
149 94 33 20 19 16 16 13 17 25 33 30 22 18 10 4 356 354 353 349 348 336 320 305 297 298 302 308 318 307 293 293 290 287 284 285 281 276 268 269 265 260 256
161 136 36 21 19 12 15 11 26 24 20 17 16 17 4 357 355 357 350 348 348 346 341 330 321 308 298 302 305 310 312 295 295 295 298 300 291 288 278 265 269 262 254
170 172 83 33 18 10 14 18 22 17 22 35 27 3 346 343 347 349 349 349 350 349 340 334 332 327 317 298 300 300 308 310 311 301 299 305 307 304 295 296 283 275 272
186 184 143 51 17 2 12 15 14 3 5 2 352 342 336 339 344 347 350 349 347 347 349 348 350 343 337 331 322 314 307 303 300 301 313 315 312 313 311 307 306 298 284
192 185 186 217 358 358 357 358 4 352 336 345 342 338 345 346 348 346 348 346 347 348 351 351 347 352 350 348 338 320 308 301 300 298 296 299 304 311 315 310 305 302 302
197 195 202 219 271 318 324 328 344 12 20 355 356 353 358 1 0 356 357 357 354 358 356 351 348 346 6 352 342 331 318 309 303 298 303 315 347 19 12 14 359 334 314
196 203 211 227 250 297 312 323 326 359 357 356 358 13 7 3 1 358 357 0 2 5 4 1 357 352 356 359 1 340 335 354 10 35 47 47 42 30 27 29 29 28 14
200 206 212 229 252 281 298 301 314 333 336 332 346 357 1 358 358 356 6 4 360 4 4 5 6 355 353 0 350 318 333 339 357 28 41 24 13 7 5 10 8 2 2
202 207 216 229 243 255 267 278 283 299 290 305 330 352 347 342 348 359 2 2 7 360 2 5 6 6 352 353 358 26 346 3 342 314 346 357 358 0 7 7 357 358 2
207 211 220 238 250 257 261 269 270 271 275 279 299 318 307 298 319 345 355 1 7 10 13 11 3 9 1 354 0 356 340 315 314 314 328 341 344 1 6 20 29 25 21
208 214 226 242 247 253 260 263 263 259 256 259 265 272 285 292 308 332 341 345 349 353 358 359 5 4 3 7 12 351 330 319 13 299 306 330 341 355 9 42 36 24 21
214 222 234 245 251 253 257 259 258 259 258 257 259 265 276 282 293 308 323 328 334 341 351 358 359 0 357 1 8 19 24 5 3 340 316 323 330 336 348 32 30 20 13